149  
ASUS46 KSEW 150320  
RWRWA  
 
WASHINGTON REGIONAL WEATHER ROUNDUP  
NATIONAL WEATHER SERVICE SEATTLE WA  
800 PM PDT SUN AUG 14 2022  
 
NOTE:"FAIR" INDICATES FEW OR NO CLOUDS BELOW 12,000 FEET WITH NO  
SIGNIFICANT WEATHER AND/OR S TO VISIBILITY
.  
 
WAZ507-509-555>559-150400-  
SEATTLE, TACOMA, EVERETT, AND VICINITY  
 
CITY SKY/WX TMP DP RH WIND PRES REMARKS
 
EVERETT CLEAR 68 52 56 N5 30.10S  
BOEING FIELD CLEAR 74 52 46 MISG 30.06S  
RENTON CLEAR 76 53 44 NW8 30.05F  
SEATAC AIRPORT PTCLDY 75 48 38 N9 30.07F  
JBLM-MCCHORD CLEAR 74 54 49 NE3 30.06S  
PUYALLUP FAIR 73 54 49 CALM 30.08S  
BREMERTON CLEAR 73 55 53 NE5 30.08S  
JBLM-FT LEWIS CLEAR 77 54 44 N6 30.04S  
TACOMA NARROWS CLEAR 73 52 47 NE7 30.06F  

 
 
WAZ001-503-506-510-514-515-150400-  
NORTH INTERIOR  
 
CITY SKY/WX TMP DP RH WIND PRES REMARKS
 
BELLINGHAM CLEAR 69 33 26 CALM 30.07F  
FRIDAY HARBOR PTCLDY 66 53 63 W6 30.08F  
EASTSOUND CLEAR 63 54 72 CALM 30.06S  
PORT ANGELES PTCLDY 65 52 62 W9 30.11F  
EDIZ HOOK FAIR 61 52 72 W10 30.10S  
PORT TOWNSEND FAIR 64 52 63 N3 30.08S  
NAS WHIDBEY PTCLDY 59 51 75 SW6 30.12F  
ARLINGTON CLEAR 70 53 54 NW10 30.08S  
BURLINGTON CLEAR 66 55 68 CALM 30.07F  

 
 
WAZ020-022-039-040-504-511-512-150400-  
SOUTHWEST INTERIOR  
 
CITY SKY/WX TMP DP RH WIND PRES REMARKS
 
SHELTON CLEAR 73 58 59 W10 30.04S  
OLYMPIA CLEAR 78 51 38 E5 30.06S  
CHEHALIS FAIR 73 61 64 CALM 30.06S  
KELSO CLEAR 75 60 59 VRB6 30.06R  
VANCOUVER CLEAR 81 56 42 NW6 30.02F  
SCAPPOOSE, OR CLEAR 80 58 46 N5 30.02F  
PORTLAND, OR PTCLDY 81 58 45 NW8 30.02S  

 
 
WAZ021-516-517-150400-  
WASHINGTON COAST  
 
CITY SKY/WX TMP DP RH WIND PRES REMARKS
 
FORKS PTCLDY 64 54 69 NW5 30.11F  
HOQUIAM PTCLDY 65 55 70 NW9 30.11S  
ASTORIA, OR CLEAR 65 56 72 W8 30.10S  

 
 
WAZ019-023-024-040-567>569-150400-  
CASCADE MOUNTAINS AND COLUMBIA GORGE  
 
CITY SKY/WX TMP DP RH WIND PRES REMARKS
 
STAMPEDE PASS CLEAR 61 51 70 SW8 30.19S  
TROUTDALE, OR CLEAR 81 54 39 CALM 30.01F  
HOOD RIVER, OR CLEAR 75 52 43 CALM 29.99S  
THE DALLES, OR CLEAR 84 52 33 NW16 29.94S  

 
 
WAZ026-027-041>044-520-521-150400-  
EAST SLOPES  
 
CITY SKY/WX TMP DP RH WIND PRES REMARKS
 
OMAK CLEAR 80 47 31 N5 29.97S  
WENATCHEE CLEAR 78 49 35 E7 29.96S  
ELLENSBURG CLEAR 80 49 33 NW16 30.01S  
YAKIMA CLEAR 84 50 30 MISG 29.97R  
SUNNYSIDE ARPT CLEAR 73 61 65 CALM 29.96S  
YAKIMA TC NOT AVBL  

 
 
WAZ028-034-035-150400-  
COLUMBIA BASIN  
 
CITY SKY/WX TMP DP RH WIND PRES REMARKS
 
EPHRATA CLEAR 81 40 23 S6 29.97S  
MOSES LAKE CLEAR 83 43 24 SE5 29.97F  
PASCO CLEAR 84 48 28 CALM 29.94S  
RICHLAND ARPT CLEAR 84 46 25 E3 29.94S  
HERMISTON, OR CLEAR 82 45 27 SE6 29.95S  

 
 
WAZ036>038-150400-  
NORTHEAST WASHINGTON  
 
CITY SKY/WX TMP DP RH WIND PRES REMARKS
 
SPOKANE GEIGER PTCLDY 82 39 21 S6 30.04S  
SPOKANE FELTS CLEAR 77 39 25 CALM 30.02S  
FAIRCHILD AFB CLEAR 78 40 25 SW6 30.03S  
COEURDALENE,ID CLEAR 76 42 29 CALM 30.05S  
DEER PARK CLEAR 75 43 31 CALM 30.04R  

 
 
WAZ029>033-150400-  
SOUTHEAST WASHINGTON  
 
CITY SKY/WX TMP DP RH WIND PRES REMARKS
 
PULLMAN CLEAR 73 36 25 CALM 30.07S  
LEWISTON, ID CLEAR 82 37 20 N6 29.98R  
WALLA WALLA CLEAR 83 40 21 CALM 29.98S  
PENDLETON, OR CLEAR 79 33 19 W7 30.00F  

 
 
 
CLICK HERE TO GO TO PREVIOUS BULLETINS.

The Nexlab WA Page Main Text Page